Amarillo, TX

10:18 PM CDT on October 17, 2017 (GMT -0500)
Amarillo International

Weather History for KAMA - February, 2014

Change the Weather History Date:

Sunday, February 23, 2014

  Actual Average Record
Temperature  
Mean Temperature 38 °F 42 °F  
Max Temperature 50 °F 56 °F 82 °F (1918)
Min Temperature 26 °F 28 °F 4 °F (1914)
Degree Days  
Heating Degree Days 27 23  
Month to date heating degree days 641 581  
Since 1 July heating degree days 3239 3166  
Cooling Degree Days 0 0  
Month to date cooling degree days 0 0  
Year to date cooling degree days 0 0  
Moisture  
Dew Point 21 °F    
Average Humidity 59    
Maximum Humidity 85    
Minimum Humidity 33    
Precipitation  
Precipitation 0.00 in 0.02 in 0.39 in (2016)
Month to date precipitation 0.34 0.46  
Year to date precipitation 0.37 1.18  
Snow  
Snow 0.00 in 0.00 in 3.50 in (2015)
Month to date snowfall 4.7 2.6  
Since 1 July snowfall 12.1 13.7  
Snow Depth 0.00 in    
Sea Level Pressure  
Sea Level Pressure 30.07 in    
Wind  
Wind Speed 12 mph (NNE)    
Max Wind Speed 24 mph    
Max Gust Speed 28 mph    
Visibility 10 miles    
Events      
T = Trace of Precipitation, MM = Missing Value Source: NWS Daily Summary

Daily Weather History Graph

Daily Weather History Graph

Search for Another Location

Airport or City:

Trip Planner

Search our weather history database for the weather conditions in past years. The results will help you decide how hot, cold, wet, or windy it might be!

Date:

Astronomy

Feb. 23, 2014 Rise Set
Actual Time 7:23 AM CST 6:36 PM CST
Civil Twilight 6:58 AM CST 7:02 PM CST
Nautical Twilight 6:28 AM CST 7:32 PM CST
Astronomical Twilight 5:59 AM CST 8:01 PM CST
Moon 2:17 AM CST (2/23) 12:47 PM CST (2/23)
Length of Visible Light 12h 04m
Length of Day
11h 13m
Last Quarter, 38% of the Moon is Illuminated
Feb 23
Last Quarter
Mar 1
New
Mar 8
First Quarter
Mar 16
Full
Mar 23
Last Quarter

Hourly Weather History & Observations

Time (CST) Temp. Windchill Dew Point Humidity Pressure Visibility Wind Dir Wind Speed Gust Speed Precip Events Conditions
12:53 AM 39.0 °F 34.0 °F 16.0 °F 39% 29.83 in 10.0 mi SSE 6.9 mph - N/A   Clear
1:53 AM 35.1 °F 30.1 °F 15.1 °F 44% 29.85 in 10.0 mi SW 5.8 mph - N/A   Clear
2:53 AM 33.1 °F 25.5 °F 14.0 °F 46% 29.86 in 10.0 mi WSW 9.2 mph - N/A   Clear
3:53 AM 39.0 °F 32.8 °F 12.0 °F 33% 29.85 in 10.0 mi West 9.2 mph - N/A   Clear
4:53 AM 37.0 °F 27.7 °F 12.0 °F 36% 29.88 in 10.0 mi NNW 16.1 mph - N/A   Clear
5:53 AM 30.9 °F 23.5 °F 14.0 °F 50% 29.94 in 10.0 mi NNW 8.1 mph - N/A   Clear
6:53 AM 26.1 °F 15.6 °F 15.1 °F 63% 30.01 in 10.0 mi North 11.5 mph - N/A   Clear
7:23 AM 26.1 °F 14.5 °F 19.9 °F 78% 30.04 in 10.0 mi North 13.8 mph - N/A   Scattered Clouds
7:33 AM 27.0 °F 15.2 °F 21.9 °F 81% 30.05 in 10.0 mi North 15.0 mph - N/A   Mostly Cloudy
7:53 AM 28.0 °F 15.3 °F 25.0 °F 88% 30.06 in 7.0 mi North 18.4 mph - N/A   Overcast
8:31 AM 28.0 °F 13.9 °F 25.0 °F 88% 30.09 in 6.0 mi North 23.0 mph - N/A   Overcast
8:53 AM 28.0 °F 14.3 °F 25.0 °F 88% 30.10 in 7.0 mi North 21.9 mph 27.6 mph N/A   Overcast
9:08 AM 28.9 °F 15.8 °F 25.0 °F 85% 30.11 in 7.0 mi North 20.7 mph 27.6 mph N/A   Overcast
9:30 AM 28.9 °F 15.1 °F 25.0 °F 85% 30.12 in 8.0 mi North 23.0 mph - N/A   Overcast
9:53 AM 30.0 °F 17.5 °F 25.0 °F 82% 30.14 in 9.0 mi North 19.6 mph - N/A   Overcast
10:53 AM 30.9 °F 19.8 °F 25.0 °F 79% 30.17 in 10.0 mi North 16.1 mph - N/A   Overcast
11:16 AM 33.1 °F 22.2 °F 25.0 °F 72% 30.17 in 10.0 mi North 17.3 mph - N/A   Overcast
11:50 AM 35.6 °F 27.1 °F 24.8 °F 65% 30.17 in 10.0 mi North 12.7 mph - N/A   Scattered Clouds
11:53 AM 36.0 °F 27.5 °F 25.0 °F 64% 30.17 in 10.0 mi NNW 12.7 mph - N/A   Partly Cloudy
12:53 PM 39.9 °F 33.4 °F 24.1 °F 53% 30.15 in 10.0 mi North 10.4 mph 20.7 mph N/A   Clear
1:53 PM 44.1 °F 37.7 °F 23.0 °F 43% 30.12 in 10.0 mi NNE 12.7 mph - N/A   Clear
2:53 PM 46.9 °F - 23.0 °F 39% 30.10 in 10.0 mi ENE 8.1 mph - N/A   Clear
3:53 PM 48.9 °F - 21.9 °F 35% 30.08 in 10.0 mi East 6.9 mph - N/A   Clear
4:53 PM 48.9 °F - 21.0 °F 33% 30.07 in 10.0 mi East 9.2 mph - N/A   Clear
5:53 PM 48.0 °F - 21.0 °F 34% 30.08 in 10.0 mi ESE 12.7 mph - N/A   Clear
6:53 PM 43.0 °F 37.2 °F 21.0 °F 42% 30.13 in 10.0 mi East 10.4 mph - N/A   Clear
7:53 PM 39.0 °F 32.3 °F 19.9 °F 46% 30.15 in 10.0 mi ESE 10.4 mph - N/A   Clear
8:53 PM 36.0 °F 28.5 °F 19.9 °F 52% 30.16 in 10.0 mi ESE 10.4 mph - N/A   Clear
9:53 PM 34.0 °F 25.0 °F 21.0 °F 59% 30.16 in 10.0 mi SE 12.7 mph - N/A   Clear
10:53 PM 30.9 °F 22.2 °F 19.9 °F 64% 30.17 in 10.0 mi ESE 10.4 mph - N/A   Clear
11:53 PM 30.9 °F 22.8 °F 19.9 °F 64% 30.17 in 10.0 mi East 9.2 mph - N/A   Clear